Terminal Aerodrome Forecast
Issued by NWS

Home | Current Version | Previous Version | Text Only | Print | Product List | Glossary On
Versions: 1 2 3 4 5 6 7 8 9 10 11 12 13 14 15 16 17 18
000
FTUS45 KSLC 232340
TAFPVU
TAF
KPVU 232340Z 2400/2424 31011KT P6SM FEW070 SCT110
     FM240400 VRB04KT P6SM FEW070 SCT110
     FM242000 29008KT P6SM SCT070 BKN110
      AMD LTD TO CLD VIS AND WIND=

USA.gov is the U.S. government's official web portal to all federal, state and local government web resources and services.